NOAA 16 DEB

Satellite information

Favourite Embed

Satellite Type and Status

DEBRISIN ORBIT

Key statistics

Satellite NOAA 16 DEB at a glance.

Uptime

9055

Days in orbit

Revolutions

≈ 14.2

Per day

Orbit

SSO

Sun Synchronous Orbit

Inclination

98.7

Latest

Satellite identification and parameters

Extended collection of information and parameters for NOAA 16 DEB.

Object identification

Identified? True

Debris? True

Object name: NOAA 16 DEB

International designator: 2000-055MA

Object number (NORAD): 41502

Object ID (CCSDS): 41502

Country: UNITED STATES OF AMERICA (US)

Current information (Y/N): Y

RCS size: SMALL

Orbital parameters

Period: 101.28 minutes

Inclination: 98.6727 deg

SMA: 7197.42 km

Apoapsis: 827.079 km

Periapsis: 811.492 km

RAAN: 239.1551 deg

Eccentricy: 0.0010828

Argument of periapsis: 56.0527 deg

Mean anomaly: 304.1678 deg

Mean motion: 14.21796612 rev/day

Mean motion (dot): 0.00002172 rev/day2

B* drag term: 0.0010059 1/REarth

Two-line elements (TLE)

Creation date: July 6, 2025, 10:26 p.m.

Reference frame: TEME

Reference center: EARTH

Epoch: July 6, 2025, 2:27 p.m. UTC

TLE line 0: 0 NOAA 16 DEB

TLE line 1: 1 41502U 00055MA 25187.60272953 .00002172 00000-0 10059-2 0 9998

TLE line 2: 2 41502 98.6727 239.1551 0010828 56.0527 304.1678 14.21796612482184

Live tracking on map

Real-time ground track for satellite NOAA 16 DEB.

In-orbit conjunctions

A list of the most updated potential collisions computed for object NOAA 16 DEB.

Target Orbit TCA Probability of collision Miss distance Type
SL-3 DEB LEO 2024-11-16 18:44:07 0.000170821 111.0 (m) DEBRIS
COSMOS 886 DEB MEO 2024-11-11 21:15:59 0.0002425867 175.0 (m) DEBRIS

Associated space launch

The NOAA K, L and M POES satellites begin the fifth generation of improved environmental monitoring in support of NOAA missions. The instrument payload has significant improvements and additions/deletions. The instrument changes have effected the spacecraft subsystems and data formats.

NOAA 16 DEB was lifted into orbit during the mission ‘Titan II SLV | NOAA 16’, on board a Titan II SLV space rocket.

The launch took place on Sept. 21, 2000, 10:22 a.m. from Space Launch Complex 4W.

For more information about the launch, click the button.

Launch to space Titan II SLV | NOAA 16
Titan II SLV | NOAA 16

Agency: N/A

Status: Launch Successful

Launch date: Sept. 21, 2000, 10:22 a.m. UTC

Rocket: Titan II SLV

Launch pad: Space Launch Complex 4W

Location: Vandenberg SFB, CA, USA

...

Latest news about this satellite

There are no fresh news available about this satellite. Check back as we update our databases every day.


Newsletter sign-up

Weekly statistics, charts and insights to help you stay on top of the space industry.